[[{"header":{"parameterUnit":"m.s-1","parameterCategory":1,"la1":30.2991,"la2":30.254,"lo1":-89.0895,"lo2":-89.0444,"dy":0.0017,"dx":0.0017,"nx":28,"ny":28,"refTime":"2025-03-21T09:00:00:Z","depth":0,"parameterNumber":2,"parameterNumberName":"U-component_of_WINDS"},"data":[0,0,0,0,0,0,0,0,0,0,0,0,0,0,0,0,0,0,0,0,0,0,0,0,0,0,0,0,0,0,0,0,0,0,0,0,0,0,0,0,0,0,0,0,0,0,0,0,0,0,0,0,0,0,0,0,0,0,-2.2419,-2.2419,0,-2.2375,-2.2375,-2.2374,-2.2287,-2.2285,-2.2284,-2.2282,-2.2238,-2.2239,-2.2239,0,0,0,0,0,0,0,0,0,0,0,0,0,-2.243,-2.243,-2.2419,-2.2418,-2.2418,-2.2375,-2.2375,-2.2374,-2.2287,-2.2285,-2.2283,-2.2281,-2.2238,-2.2238,-2.2239,0,0,0,0,0,0,0,0,0,0,0,0,0,-2.241,-2.243,-2.2419,-2.237,-2.2365,-2.2375,-2.2375,-2.2374,-2.2288,-2.2285,-2.2283,-2.228,-2.2238,-2.2238,-2.2239,-2.2295,0,0,-2.2241,-2.2241,0,0,0,0,0,0,0,0,-2.2411,-2.2409,-2.2377,-2.2373,-2.2367,-2.2334,-2.2362,-2.2347,-2.2288,-2.2317,-2.2282,-2.2279,-2.2272,-2.227,-2.2267,-2.2293,-2.2291,-2.2241,-2.2242,-2.2242,-2.2242,0,0,0,0,0,0,0,-2.2413,-2.2411,-2.2402,-2.2377,-2.2371,-2.235,-2.2344,-2.2359,-2.231,-2.2314,-2.2308,-2.2304,-2.2269,-2.2267,-2.2266,-2.229,-2.2241,-2.2242,-2.2242,-2.2242,-2.2361,-2.2364,0,0,0,0,0,0,-2.2421,-2.2413,-2.2403,-2.24,-2.2383,-2.2352,-2.2346,-2.2347,-2.2309,-2.2301,-2.2306,-2.23,-2.2267,-2.2265,-2.2264,-2.2327,-2.2242,-2.2242,-2.2243,-2.2358,-2.2362,-2.2365,0,0,0,0,0,0,-2.2421,-2.2421,-2.2405,-2.2405,-2.2401,-2.2355,-2.2357,-2.2348,-2.2345,-2.2303,-2.2294,-2.2313,-2.2265,-2.2263,-2.2288,-2.2324,-2.2243,-2.2243,-2.2355,-2.2359,-2.2363,-2.2454,0,0,0,0,0,0,-2.2422,-2.2422,-2.2441,-2.2406,-2.2401,-2.2429,-2.2359,-2.2349,-2.2347,-2.2338,-2.2307,-2.2299,-2.2263,-2.2288,-2.2289,-2.2324,-2.2244,-2.2352,-2.2357,-2.2362,-2.2447,-2.2461,-2.2472,0,0,0,0,0,-2.2423,-2.2469,-2.2443,-2.2442,-2.2425,-2.2431,-2.2429,-2.2386,-2.235,-2.237,-2.2343,-2.23,-2.2321,-2.2291,-2.2291,-2.2327,-2.2349,-2.2355,-2.2361,-2.2442,-2.2458,-2.2472,0,0,0,0,0,0,-2.2509,-2.2463,-2.2434,-2.2469,-2.2455,-2.2417,-2.244,-2.2404,-2.2399,-2.2392,-2.2339,-2.2333,-2.2365,-2.2349,-2.2316,-2.238,-2.2328,-2.2335,-2.2389,-2.2404,-2.2416,-2.2419,-2.2244,0,0,0,0,0,-2.2533,-2.2541,-2.25,-2.2536,-2.253,-2.2487,-2.2488,-2.2456,-2.2439,-2.2433,-2.2407,-2.2393,-2.2396,-2.24,-2.24,-2.2445,-2.2438,-2.2471,-2.2483,-2.2493,-2.2499,-2.2523,-2.2537,-2.2385,-2.2385,-2.2385,0,0,-2.2581,-2.2557,-2.2565,-2.2553,-2.2538,-2.2548,-2.2482,-2.2496,-2.2504,-2.2435,-2.2457,-2.2439,-2.2419,-2.2455,-2.247,-2.2443,-2.254,-2.2501,-2.251,-2.251,-2.2531,-2.2545,-2.2558,-2.2389,-2.2388,-2.2388,0,0,-2.2673,-2.2656,-2.2684,-2.2671,-2.2649,-2.2621,-2.2628,-2.2596,-2.2581,-2.2602,-2.2551,-2.2561,-2.2567,-2.2555,-2.2551,-2.2642,-2.2603,-2.2644,-2.2708,-2.2732,-2.2744,-2.2754,-2.2787,-2.28,-2.2651,-2.2651,-2.2651,0,-2.2736,-2.2749,-2.2703,-2.272,-2.2717,-2.2656,-2.2685,-2.2674,-2.2655,-2.2654,-2.2624,-2.2632,-2.2615,-2.2648,-2.267,-2.2668,-2.2675,-2.2647,-2.2746,-2.2756,-2.2765,-2.2796,-2.2808,-2.2656,-2.2655,-2.2655,-2.2654,0,-2.2827,-2.2837,-2.2863,-2.2845,-2.2845,-2.2868,-2.2826,-2.2832,-2.2801,-2.2776,-2.28,-2.2778,-2.2773,-2.2779,-2.2749,-2.2809,-2.2792,-2.2755,-2.2702,-2.2785,-2.2813,-2.2825,-2.2663,-2.2662,-2.266,-2.2659,0,0,-2.297,-2.2929,-2.2939,-2.2931,-2.2905,-2.2912,-2.2934,-2.2929,-2.2935,-2.2925,-2.2941,-2.295,-2.2916,-2.291,-2.2879,-2.29,-2.2975,-2.286,-2.2859,-2.2882,-2.304,-2.3068,-2.3083,-2.295,-2.2952,-2.2953,-2.3042,0,-2.3057,-2.3089,-2.305,-2.3092,-2.3101,-2.3045,-2.3064,-2.3051,-2.3029,-2.3035,-2.301,-2.3017,-2.2971,-2.2968,-2.2987,-2.2962,-2.3006,-2.2955,-2.2965,-2.2966,-2.2971,-2.3097,-2.3126,-2.3211,-2.3053,-2.3055,-2.3056,0,-2.3161,-2.3156,-2.3199,-2.3171,-2.3174,-2.3191,-2.3185,-2.3191,-2.3175,-2.3158,-2.3154,-2.3116,-2.3136,-2.3086,-2.3113,-2.308,-2.3082,-2.3071,-2.3073,-2.3071,-2.3015,-2.3099,-2.3236,-2.3249,-2.3073,-2.3071,-2.307,0,-2.3261,-2.3265,-2.3291,-2.3287,-2.3255,-2.3269,-2.3256,-2.3238,-2.3239,-2.3234,-2.3234,-2.3232,-2.3231,-2.3231,-2.3195,-2.3161,-2.3227,-2.3173,-2.3214,-2.3215,-2.3229,-2.3228,-2.3369,-2.3232,-2.3232,-2.3232,-2.3231,0,-2.3361,-2.3389,-2.3336,-2.3353,-2.3384,-2.3339,-2.3371,-2.3353,-2.3338,-2.335,-2.3302,-2.3315,-2.3267,-2.3275,-2.3247,-2.3275,-2.3275,-2.3262,-2.3254,-2.3266,-2.3267,-2.3265,-2.3258,-2.3235,-2.3234,-2.3233,-2.3233,0,-2.3477,-2.3443,-2.3468,-2.3437,-2.343,-2.3454,-2.3428,-2.3442,-2.3418,-2.3435,-2.3437,-2.3399,-2.3407,-2.3371,-2.3372,-2.3353,-2.3395,-2.3378,-2.34,-2.3395,-2.3437,-2.3434,-2.3581,-2.3598,-2.3451,-2.3452,-2.3454,0,-2.3542,-2.3563,-2.3535,-2.354,-2.353,-2.3539,-2.354,-2.3498,-2.3501,-2.3486,-2.3502,-2.3506,-2.3506,-2.3522,-2.3495,-2.3496,-2.3478,-2.353,-2.3478,-2.3489,-2.3479,-2.3478,-2.348,-2.354,-2.3542,-2.3543,-2.3544,0,-2.3662,-2.3645,-2.3647,-2.3646,-2.3648,-2.3644,-2.3637,-2.3644,-2.3599,-2.3605,-2.3612,-2.3613,-2.3615,-2.362,-2.3616,-2.3604,-2.3567,-2.3561,-2.3571,-2.3582,-2.3595,-2.3589,-2.3429,-2.3558,-2.3556,-2.3555,-2.3555,-2.3554,-2.3755,-2.3771,-2.3754,-2.376,-2.375,-2.3746,-2.3758,-2.3736,-2.3741,-2.374,-2.3715,-2.3728,-2.3713,-2.3705,-2.3697,-2.3706,-2.3682,-2.3696,-2.3699,-2.3703,-2.3711,-2.3594,-2.3706,-2.3705,-2.3705,-2.3705,-2.3704,0,-2.3872,-2.3859,-2.3864,-2.3857,-2.3861,-2.3827,-2.3818,-2.3825,-2.3836,-2.3826,-2.3828,-2.3838,-2.3843,-2.3818,-2.382,-2.3832,-2.3816,-2.3834,-2.3832,-2.3831,-2.3732,-2.3724,-2.3848,-2.3848,-2.3848,-2.3848,-2.3848,-2.3848,-2.3933,-2.3959,-2.3941,-2.3963,-2.3949,-2.3961,-2.3959,-2.3955,-2.3947,-2.396,-2.3964,-2.3948,-2.3932,-2.3933,-2.3936,-2.3929,-2.3932,-2.3956,-2.3943,-2.3851,-2.3837,-2.3824,-2.3816,-2.3957,-2.3957,-2.4041,-2.4041,-2.4042]},{"header":{"parameterUnit":"m.s-1","parameterCategory":1,"la1":30.2991,"la2":30.254,"lo1":-89.0895,"lo2":-89.0444,"dy":0.0017,"dx":0.0017,"nx":28,"ny":28,"refTime":"2025-03-21T09:00:00:Z","depth":0,"parameterNumber":3,"parameterNumberName":"V-component_of_WINDS"},"data":[0,0,0,0,0,0,0,0,0,0,0,0,0,0,0,0,0,0,0,0,0,0,0,0,0,0,0,0,0,0,0,0,0,0,0,0,0,0,0,0,0,0,0,0,0,0,0,0,0,0,0,0,0,0,0,0,0,0,2.4065,2.4065,0,2.4045,2.4045,2.4044,2.4068,2.4069,2.407,2.4071,2.4045,2.4043,2.4042,0,0,0,0,0,0,0,0,0,0,0,0,0,2.412,2.4119,2.4065,2.4065,2.4064,2.4045,2.4045,2.4044,2.4068,2.4069,2.407,2.4071,2.4045,2.4044,2.4042,0,0,0,0,0,0,0,0,0,0,0,0,0,2.4097,2.4118,2.4065,2.4074,2.4075,2.4045,2.4045,2.4044,2.4068,2.4069,2.4071,2.4072,2.4046,2.4044,2.4041,2.4,0,0,2.4034,2.4033,0,0,0,0,0,0,0,0,2.4098,2.4095,2.4073,2.4073,2.4074,2.4061,2.4054,2.4029,2.4068,2.407,2.4071,2.4073,2.4049,2.4046,2.4039,2.3999,2.3998,2.4034,2.4033,2.4032,2.4031,0,0,0,0,0,0,0,2.41,2.4096,2.4057,2.4073,2.4073,2.4078,2.4076,2.405,2.4052,2.407,2.4072,2.4069,2.4049,2.4041,2.4039,2.3997,2.4034,2.4032,2.4031,2.403,2.3923,2.3922,0,0,0,0,0,0,2.4101,2.4097,2.4057,2.4056,2.409,2.4076,2.4074,2.4063,2.4052,2.4052,2.4068,2.4071,2.4045,2.4041,2.4038,2.3989,2.4032,2.403,2.4028,2.3924,2.3923,2.3921,0,0,0,0,0,0,2.4102,2.4097,2.4058,2.4077,2.4073,2.4073,2.4061,2.4062,2.4055,2.4051,2.4051,2.406,2.4046,2.4041,2.401,2.3988,2.4029,2.4027,2.3926,2.3924,2.3922,2.3891,0,0,0,0,0,0,2.4104,2.4098,2.4083,2.4077,2.4072,2.4032,2.406,2.4061,2.4051,2.4054,2.4043,2.4043,2.4046,2.4013,2.4008,2.3986,2.4025,2.3928,2.3925,2.3922,2.3894,2.3888,2.3883,0,0,0,0,0,2.4106,2.4073,2.4082,2.4077,2.4053,2.403,2.4027,2.4033,2.405,2.4034,2.4032,2.4043,2.3992,2.401,2.4004,2.3981,2.3929,2.3926,2.3923,2.3896,2.3889,2.3883,0,0,0,0,0,0,2.4074,2.4073,2.4082,2.4047,2.4039,2.4034,2.4015,2.4025,2.4011,2.4014,2.4021,2.4018,2.3985,2.398,2.4,2.3941,2.3963,2.3959,2.3945,2.3938,2.3933,2.3934,2.4023,0,0,0,0,0,2.4064,2.4047,2.4046,2.4015,2.4011,2.4014,2.4004,2.401,2.4001,2.3997,2.3992,2.3981,2.3963,2.3951,2.3933,2.3894,2.3891,2.3875,2.387,2.3865,2.3861,2.3839,2.3832,2.391,2.391,2.391,0,0,2.4041,2.4038,2.4026,2.4009,2.4003,2.3984,2.401,2.3989,2.3974,2.3993,2.3963,2.396,2.3948,2.3913,2.3897,2.3908,2.3839,2.3861,2.3858,2.3855,2.3835,2.3828,2.3821,2.3908,2.3908,2.3909,0,0,2.3989,2.3986,2.396,2.3955,2.3947,2.3949,2.3943,2.3938,2.3937,2.3908,2.3921,2.3904,2.3872,2.3864,2.3855,2.3803,2.3813,2.3797,2.3768,2.3747,2.3741,2.3736,2.3716,2.371,2.3793,2.3793,2.3793,0,2.3961,2.3935,2.3945,2.3923,2.3915,2.3934,2.3907,2.3901,2.3886,2.388,2.3893,2.3855,2.3848,2.3811,2.3799,2.3791,2.3784,2.3798,2.3742,2.3736,2.3731,2.3713,2.3706,2.3791,2.3791,2.3791,2.3792,0,2.39,2.3882,2.3862,2.385,2.384,2.3816,2.3822,2.381,2.3817,2.3818,2.3788,2.3782,2.3764,2.3756,2.3762,2.372,2.3727,2.3741,2.3763,2.3722,2.3705,2.3698,2.3788,2.3789,2.379,2.379,0,0,2.3826,2.3823,2.3815,2.381,2.3804,2.3789,2.3766,2.3751,2.374,2.3731,2.3711,2.3685,2.3698,2.3688,2.3694,2.3676,2.3635,2.3692,2.3691,2.368,2.3587,2.3576,2.3568,2.3642,2.3641,2.364,2.3588,0,2.3774,2.3736,2.3745,2.3707,2.3689,2.3708,2.3688,2.3681,2.3682,2.3666,2.3667,2.3648,2.3667,2.3662,2.3645,2.3643,2.3616,2.3647,2.3622,2.3621,2.3623,2.3559,2.3547,2.3499,2.3582,2.3581,2.358,0,2.3708,2.3698,2.3658,2.3656,2.3649,2.3631,2.3618,2.3604,2.3597,2.3599,2.3589,2.3599,2.3575,2.3599,2.3566,2.3587,2.3577,2.3575,2.3574,2.357,2.3597,2.3553,2.3483,2.3476,2.3569,2.357,2.3571,0,2.3657,2.3634,2.3607,2.3603,2.3599,2.3586,2.3584,2.3579,2.3569,2.3558,2.3552,2.3537,2.3529,2.3517,2.3522,2.3539,2.3487,2.3512,2.3487,2.3487,2.3473,2.3474,2.34,2.3469,2.347,2.347,2.347,0,2.3597,2.3571,2.3584,2.3568,2.354,2.3551,2.3523,2.3523,2.3518,2.3501,2.3516,2.3499,2.3508,2.3491,2.3495,2.3467,2.3463,2.3463,2.3464,2.3461,2.3461,2.3453,2.3456,2.3468,2.3468,2.3469,2.3469,0,2.3534,2.3542,2.3514,2.3515,2.3514,2.3494,2.3493,2.3477,2.348,2.3459,2.3454,2.3458,2.344,2.3444,2.3424,2.3426,2.3391,2.3396,2.3393,2.3394,2.3369,2.3371,2.3287,2.3276,2.3353,2.3353,2.3352,0,2.3495,2.3476,2.3475,2.3466,2.3464,2.3448,2.344,2.345,2.3441,2.3432,2.3417,2.3401,2.3388,2.3358,2.3358,2.3343,2.3348,2.3319,2.3345,2.3343,2.3346,2.3347,2.3345,2.3313,2.3312,2.3312,2.3311,0,2.3424,2.3429,2.3417,2.3407,2.3397,2.3388,2.3381,2.3372,2.3383,2.3371,2.3354,2.3344,2.3325,2.3308,2.3295,2.3291,2.3302,2.3304,2.3297,2.3293,2.3292,2.3291,2.3378,2.3305,2.3305,2.3306,2.3306,2.3307,2.3371,2.3356,2.3353,2.334,2.3336,2.333,2.3315,2.3318,2.3304,2.3291,2.3298,2.3278,2.3272,2.3255,2.325,2.3234,2.3244,2.3234,2.3232,2.3229,2.3226,2.3296,2.3231,2.3231,2.3232,2.3232,2.3232,0,2.33,2.3301,2.3288,2.3279,2.3268,2.3283,2.3276,2.3266,2.3249,2.3243,2.3232,2.3212,2.3196,2.3196,2.3182,2.3169,2.3173,2.3164,2.3164,2.3163,2.3217,2.3224,2.3161,2.3161,2.3161,2.3161,2.3161,2.3161,2.3262,2.3237,2.3243,2.3216,2.3216,2.3198,2.3193,2.3187,2.3183,2.3161,2.3149,2.315,2.3147,2.3132,2.3118,2.3119,2.3112,2.3101,2.3103,2.3152,2.316,2.3166,2.3173,2.3099,2.3099,2.305,2.305,2.3049]}]]